EST,Max TemperatureF,Mean TemperatureF,Min TemperatureF,Max Dew PointF,MeanDew PointF,Min DewpointF,Max Humidity, Mean Humidity, Min Humidity, Max Sea Level PressureIn, Mean Sea Level PressureIn, Min Sea Level PressureIn, Max VisibilityMiles, Mean VisibilityMiles, Min VisibilityMiles, Max Wind SpeedMPH, Mean Wind SpeedMPH, Max Gust SpeedMPH,PrecipitationIn, CloudCover, Events, WindDirDegrees
2013-2-1,14,11,7,3,0,-3,73,66,58,30.22,29.94,29.66,10,10,5,21,10,28,T,4,Snow,285
2013-2-2,14,10,5,9,6,-4,84,74,63,30.24,30.08,30.02,10,4,0,10,5,14,0.04,8,Fog-Snow,69
2013-2-3,16,8,0,9,6,-2,91,79,67,30.06,29.94,29.80,10,8,2,12,6,13,T,7,Snow,38
2013-2-4,16,4,-8,11,2,-13,91,69,46,30.01,29.87,29.80,10,8,2,22,9,26,T,4,Snow,266
2013-2-5,20,2,-16,6,-6,-20,91,63,35,30.08,30.00,29.90,10,10,10,8,2,10,T,3,,101
2013-2-6,25,15,5,19,5,-7,81,64,46,30.44,30.10,29.83,10,10,4,23,9,30,T,6,Snow,275
2013-2-7,8,3,-2,-1,-7,-12,83,70,56,30.65,30.55,30.43,10,10,5,20,10,25,T,6,Snow,49
2013-2-8,14,9,4,9,4,-4,88,84,79,30.41,30.20,30.05,2,1,0,26,17,33,0.05,8,Fog-Snow,58
2013-2-9,15,2,-11,7,2,-12,88,72,55,30.45,30.28,30.13,10,7,2,21,8,26,T,4,Snow,358
2013-2-10,28,6,-17,7,-4,-21,100,68,36,30.52,30.40,30.18,10,10,9,12,3,13,0.00,1,,56
2013-2-11,39,25,11,34,20,5,85,73,61,30.13,29.74,29.57,10,8,1,25,9,38,0.03,7,Rain-Snow,83
2013-2-12,37,34,30,31,29,24,89,77,64,29.87,29.69,29.56,10,8,3,22,14,29,T,8,Snow,235
2013-2-13,34,30,25,28,25,21,92,77,61,29.87,29.83,29.77,10,9,2,12,4,16,T,8,Snow,230
2013-2-14,36,31,26,27,23,20,85,69,52,29.94,29.88,29.80,10,8,1,10,4,,0.01,8,Snow,207
2013-2-15,39,31,22,34,27,13,92,74,56,30.03,29.83,29.75,10,8,2,38,15,46,0.02,8,Rain-Snow,208
2013-2-16,22,12,1,12,4,-4,79,62,45,30.12,30.07,30.01,10,10,8,14,6,18,T,3,Snow,279
2013-2-17,13,7,1,0,-2,-4,87,73,58,30.04,29.96,29.90,10,10,10,21,11,26,0.00,0,,286
2013-2-18,18,10,1,2,-3,-7,76,61,46,30.28,30.20,30.09,10,10,10,17,9,22,0.00,1,,243
2013-2-19,33,22,10,30,20,3,92,71,49,30.12,29.73,29.61,10,5,0,24,9,33,0.25,7,Fog-Snow,77
2013-2-20,28,19,10,22,15,6,84,69,53,29.93,29.77,29.64,10,5,1,23,16,37,0.01,8,Snow,255
2013-2-21,20,13,6,15,4,-1,84,76,67,30.45,30.12,29.92,10,5,1,21,12,28,T,8,Snow,246
2013-2-22,34,27,20,27,20,16,100,81,61,30.47,30.35,30.19,10,10,10,18,7,22,T,6,,88
2013-2-23,34,31,28,34,29,22,100,88,75,30.16,29.98,29.86,10,3,0,10,4,14,0.06,8,Fog-Rain-Snow,65
2013-2-24,37,35,32,34,30,25,100,80,59,29.99,29.88,29.82,10,6,1,13,7,15,0.01,8,Rain-Snow,224
2013-2-25,38,34,29,32,29,26,96,83,70,30.27,30.16,30.01,10,9,6,8,2,9,T,8,,239
2013-2-26,39,32,24,30,27,21,100,82,64,30.33,30.25,30.06,10,8,1,21,7,24,0.00,2,,68
2013-2-27,35,34,33,34,31,27,100,85,70,30.06,29.77,29.64,10,4,0,30,19,38,0.36,7,Fog-Rain-Snow,55
2013-2-28,38,35,32,34,31,30,100,91,82,29.70,29.60,29.54,10,6,1,20,7,26,0.02,8,Snow,63